SCP
0 0 0 0 0 0 0 0 0 0 0 0 -0 -0 -0 -0 -0 0 0 0 -0 0 0 0 0 0 0 0 0 0 0 0 0 0 0 0 0 0 0 0 0 0 0 0
0 0 0 0 0 0 0 0 0 0 0 0 -0 -0 -0 -0 -0 -0 -0 -0 -0 0 0 0 0 0 0 0 0 0 0 0 0 0 0 0 0 0 0 0 0 0 0 0
0 0 0 0 0 0 0 0 0 0 0 0 -0 -0 -0 -0 -0 -0 -0 0 -0 0 0 0 0 0 0 0 0 0 0 0 0 0 0 0 0 0 0 0 0 0 0 0
0 0 0 0 0 0 0 0 0 0 0 -0 -0 -0 -0 -0 0 -0 -0 0 -0 0 0 0 0 0 0 0 0 0 0 0 0 0 0 0 0 0 0 0 0 0 0 0
0 0 0 0 0 0 0 0 0 0 0 -0 -0 -0 -0 -0 0 0 -0 -0 0 -0 0 0 0 0 0 0 0 0 0 0 0 0 0 0 0 0 0 0 0 0 0 0
0 0 0 0 0 0 0 0 0 0 0 -0 -0 -0 -0 -0 -0 0 0 0 -0 0 0 0 0 0 0 0 0 0 0 0 0 0 0 0 0 0 0 0 0 0 0 0
0 0 0 0 0 0 0 0 0 0 -0 -0 -0 -0 -0 -0 -0 -0 0 0 -0 -0 0 0 0 0 0 0 0 0 0 0 0 0 0 0 0 0 0 0 0 0 0 0
0 0 0 0 0 0 0 0 0 -0 0 0 0 0 -0 -0 -0 -0 0 0 -0 -0 0 0 0 0 0 0 0 0 0 0 0 0 0 0 0 0 0 0 0 0 0 0
0 0 0 0 0 0 0 -0 -0 -0 0 0 0 0 0 -0 -0 -0 -0 0 0 -0 -0 0 0 0 0 0 0 0 0 0 0 0 0 0 0 0 0 0 0 0 0 0
0 0 0 0 0 0 0 -0 -0 0 0 0 0 0 0 -0 -0 -0 -0 -0 -0 0 0 0 0 0 0 0 0 0 0 0 0 0 0 0 0 0 0 0 0 0 0 0
0 0 0 0 0 -0 0 0 0 0 0 0 0 0 -0 -0 -0 -0 -0 -0 -0 -0 0 0 0 0 0 0 0 0 0 0 0 0 0 0 0 0 0 0 0 0 0 0
0 0 0 0 -0 -0 0 0 0 0 0 0 0 0 -0 -0 -0 -0 -0 -0 -0 -0 -0 0 0 0 0 0 0 0 0 0 0 0 0 0 0 0 0 0 0 0 0 0
0 0 0 0 -0 -0 0 -0 0 0 0 0 0 0 -0 -0 -0 -0 -0 -0 -0 -0 -0 -0 0 0 0 0 0 0 0 0 0 0 0 0 0 0 0 0 0 0 0 0
0 0 -0 -0 0 0 0 0 0 0 0 0 0 0 0 0 0 -0 -0 -0 -0 -0 -0 -0 -0 -0 0 0 0 0 0 0 0 0 0 0 0 0 0 0 0 0 0 0
0 0 -0 -0 -0 -0 -0 0 -0 0 0 0 0 0 0 0 0 -0 -0 -0 -0 -0 -0 -0 -0 -0 -0 0 0 0 0 0 0 0 0 0 0 0 0 0 0 0 0 0
0 -0 -0 -0 -0 -0 -0 0 0 -0 0 0 0 0 0 0 0 -0 -0 -0 -0 -0 -0 -0 -0 -0 -0 -0 0 0 0 0 0 0 0 0 0 0 0 0 0 0 0 0
0 -0 -0 -0 -0 0 0 0 0 0 0 0 0 0 0 0 0 0 -0 -0 -0 -0 -0 -0 -0 -0 -0 -0 -0 0 0 0 0 0 0 0 0 0 0 0 0 0 0 0
0 -0 -0 -0 -0 -0 0 0 0 0 0 0 0 0 0 0 0 0 0 0 -0 -0 -0 -0 -0 -0 -0 -0 -0 -0 0 0 0 0 0 0 0 0 0 0 0 0 0 0
0 0 -0 -0 -0 -0 -0 -0 0 0 0 0 0 0 0 0 0 0 0 0 -0 -0 -0 -0 0 -0 -0 -0 -0 -0 -0 0 0 0 0 0 0 0 0 0 0 0 0 0
0 0 -0 -0 -0 -0 -0 -0 -0 0 0 0 0 0 0 0 0 0 0 0 -0 -0 -0 -0 -0 0 0 0 0 -0 -0 -0 0 0 0 0 0 0 0 0 0 0 0 0
0 0 -0 -0 -0 -0 -0 -0 -0 0 0 0 0 0 0 0 0 0 0 0 -0 0 0 -0 -0 -0 0 0 0 -0 -0 -0 0 0 0 0 0 0 0 0 0 0 0 0
0 0 -0 -0 -0 -0 -0 0 0 0 0 0 0 0 0 0 0 0 0 0 0 0 0 0 0 0 0 0 0 -0 -0 0 0 0 0 0 0 0 0 0 0 0 0 0
0 0 -0 -0 -0 -0 -0 0 0 0 0 0 0 0 0 0 0 0 0 0 0 0 0 0 0 0 0 0 0 0 0 0 0 0 0 0 0 0 0 0 0 0 0 0
0 0 -0 -0 -0 -0 0 0 0 0 0 0 0 0 0 0 0 0 0 0 0 0 0 0 0 0 0 0 0 0 0 0 0 0 0 0 0 0 0 0 0 0 0 0
0 0 0 -0 -0 -0 0 0 0 0 0 0 0 0 0 0 0 0 0 0 0 0 0 0 0 0 0 0 0 0 0 0 0 0 0 0 0 0 0 0 0 0 0 0
0 0 0 -0 -0 0 0 0 0 0 0 0 0 0 0 0 0 0 0 0 0 0 0 0 0 0 0 0 0 0 0 0 0 0 0 0 0 0 0 0 0 0 0 0
0 0 -0 -0 -0 -0 0 0 0 0 0 0 0 0 0 0 0 0 0 0 0 0 0 0 0 0 0 0 0 0 0 0 0 0 0 0 0 0 0 0 0 0 0 0
Wind_Speed_500mb
17 29 29 36 39 35 29 38 20 44 43 38 29 36 56 75 62 87 80 93 95 92 84 76 64 60 56 42 52 78 90 88 96 98 99 97 97 101 98 93 89 93 90 88
31 34 34 46 38 37 39 42 34 41 47 18 48 53 51 71 74 78 74 82 96 95 91 77 58 51 60 35 46 71 79 84 88 93 94 97 95 100 98 93 88 94 96 90
32 6 10 19 20 30 16 10 13 16 24 23 31 36 41 55 67 78 83 82 92 90 86 79 56 48 51 31 40 63 69 77 89 94 92 93 92 94 97 94 90 92 96 94
24 4 25 15 7 11 15 31 20 23 24 35 43 53 49 49 55 73 83 88 90 97 98 78 52 41 35 21 30 54 65 75 85 88 88 86 86 90 92 91 92 91 97 95
9 16 34 36 25 28 24 34 24 18 28 41 52 42 39 50 65 67 76 94 83 86 91 86 58 36 25 20 25 47 60 70 76 80 80 82 81 84 88 89 90 91 94 96
6 22 30 31 32 27 8 27 39 29 20 30 46 24 25 67 79 74 65 83 81 88 93 96 70 35 20 18 12 36 49 61 63 71 71 73 69 81 83 84 86 87 91 95
20 28 29 24 24 32 16 21 19 36 67 62 26 39 71 75 74 68 65 60 82 72 83 95 86 52 24 11 9 11 44 47 53 60 61 62 68 74 74 80 82 83 89 93
3 7 40 43 26 16 25 84 86 80 75 71 73 73 63 67 63 62 65 61 63 80 82 83 90 79 46 19 7 11 32 40 50 53 56 58 62 62 65 74 80 81 86 90
14 26 61 79 75 85 101 70 79 76 81 82 71 76 61 60 59 59 61 62 56 55 73 79 82 89 77 39 8 13 19 43 40 44 55 58 60 66 64 72 79 83 87 93
32 45 61 77 82 84 78 92 94 92 82 83 75 77 60 55 53 56 56 55 52 52 69 81 78 81 84 63 16 6 16 14 48 50 58 63 63 65 67 75 82 85 89 93
37 56 66 66 70 76 77 68 81 71 65 69 79 81 59 52 49 49 49 49 47 47 47 61 73 76 81 81 49 10 6 22 28 30 34 51 58 61 68 69 75 82 86 92
26 67 60 81 92 85 75 79 86 75 79 90 85 75 63 52 43 44 44 43 45 44 45 46 46 62 70 76 73 45 13 10 26 32 32 44 48 51 55 61 59 61 64 78
26 57 77 90 84 83 81 93 86 73 80 83 79 69 65 57 43 38 40 36 40 45 48 46 44 42 58 67 69 65 42 16 12 25 39 48 47 49 55 54 55 53 60 64
25 47 57 40 60 82 75 83 80 79 82 85 84 76 70 57 44 37 37 32 36 41 46 46 44 42 39 55 60 62 58 38 16 11 22 37 48 50 50 55 57 59 59 60
43 44 45 64 73 73 63 57 64 78 79 77 70 64 63 59 51 39 36 30 31 35 43 44 44 43 39 35 49 54 57 57 39 19 9 22 36 45 50 52 54 55 54 56
46 53 55 67 81 81 74 62 57 65 67 71 66 57 55 56 54 43 37 28 31 35 40 44 42 42 40 35 31 39 50 52 50 35 21 12 20 30 37 45 51 54 55 58
46 63 78 82 80 89 84 71 55 54 60 65 61 46 48 50 51 43 36 26 28 35 36 40 39 37 37 36 33 29 34 47 48 43 32 23 16 17 25 36 42 47 48 53
34 42 48 58 67 77 82 70 56 46 47 50 48 45 44 43 45 41 34 26 26 35 38 39 36 33 32 32 29 27 25 25 40 44 38 27 23 15 22 23 30 37 40 40
33 42 50 56 60 59 63 65 56 44 35 35 38 31 38 37 34 36 33 28 29 35 39 39 36 32 30 27 25 24 25 21 13 29 35 33 25 20 16 16 20 26 26 34
32 42 51 55 54 55 57 51 50 38 26 22 23 20 25 34 33 34 28 28 30 37 40 42 37 32 29 28 24 23 20 19 17 8 16 25 28 24 26 17 10 15 22 28
32 41 49 54 55 51 50 47 46 37 22 13 14 20 25 30 29 29 30 28 31 37 39 38 36 31 28 25 23 19 19 16 14 15 11 7 13 20 18 18 18 13 6 10
35 43 47 50 52 53 48 42 39 37 31 20 16 18 23 27 27 27 31 32 34 35 37 35 30 29 26 23 21 19 17 18 16 12 10 10 6 11 14 9 9 9 10 8
37 42 46 46 49 51 47 43 37 36 33 28 23 22 22 24 27 27 32 35 32 30 30 31 28 29 27 22 21 20 18 17 16 13 10 4 4 2 9 8 4 2 3 2
39 43 49 47 45 47 47 38 36 34 31 29 27 24 22 20 24 23 27 29 29 28 25 29 29 29 30 24 20 23 22 19 21 20 18 12 6 5 2 4 4 8 6 10
41 42 45 45 45 43 44 41 35 32 30 27 27 26 24 22 22 22 23 24 26 27 24 27 29 31 31 26 25 23 25 22 25 25 23 22 17 14 9 7 7 8 11 14
44 45 47 45 45 44 42 41 38 31 31 28 21 25 26 27 25 22 23 26 29 28 26 28 28 34 34 31 30 30 28 25 28 29 25 26 27 25 21 20 15 13 14 16
48 47 48 48 40 41 41 41 40 34 30 33 32 23 24 26 28 29 25 25 27 26 25 28 30 31 32 32 31 31 34 34 32 33 30 29 30 29 28 26 27 22 20 21
Wind_Direction_500mb
235 275 275 270 275 276 257 251 257 275 282 285 316 318 322 327 327 332 333 340 332 324 321 324 322 322 318 277 225 218 215 209 209 212 219 221 220 219 218 216 214 213 212 212
282 268 264 272 273 271 264 262 260 257 265 290 304 304 327 332 328 327 331 333 335 331 331 327 323 323 325 287 218 217 210 209 208 208 211 219 219 217 216 215 212 211 212 212
286 261 306 278 244 243 244 230 211 256 280 297 292 295 318 325 329 327 332 325 337 331 330 333 326 324 326 305 216 211 206 206 208 210 208 215 217 215 213 213 211 211 211 211
285 333 277 244 242 252 240 268 260 263 277 275 275 286 294 325 326 331 338 329 331 345 345 342 332 324 317 308 221 206 207 208 210 211 211 209 215 213 212 211 211 210 209 210
247 253 285 290 274 268 268 282 265 258 264 284 305 300 292 331 329 325 337 341 336 351 349 351 347 333 313 321 216 205 208 210 212 213 212 209 210 210 210 210 209 211 209 207
253 282 282 286 306 278 285 283 275 243 272 297 325 314 306 324 327 330 334 338 346 349 2 1 359 352 342 323 294 214 211 212 213 213 215 216 215 207 208 209 211 211 209 208
259 271 281 281 291 288 250 275 336 301 316 311 305 290 296 312 319 324 331 335 345 355 5 3 4 5 4 352 314 209 205 214 213 213 214 215 211 206 208 207 210 210 209 207
1 255 278 279 318 282 308 315 310 304 302 300 301 299 300 309 316 325 333 336 345 353 3 3 7 12 9 6 309 225 201 212 214 211 210 210 210 209 207 207 207 208 207 207
250 267 278 284 285 286 290 290 294 297 299 300 300 299 303 309 315 328 336 341 343 347 358 2 11 12 12 4 355 220 207 216 214 210 209 207 207 204 204 207 208 206 206 206
283 276 279 286 285 282 278 286 287 289 288 295 299 311 300 306 317 330 335 342 340 346 0 359 5 14 10 13 11 229 190 218 213 206 210 211 210 210 207 207 208 209 206 206
281 285 295 293 288 283 281 285 290 290 290 299 305 306 296 304 319 325 332 340 348 350 358 356 1 2 14 12 20 30 205 209 209 203 208 210 211 212 212 214 214 211 210 208
291 298 297 291 290 287 288 288 288 286 294 294 298 296 299 297 311 321 326 338 346 351 352 357 355 1 7 16 16 22 26 213 209 207 214 213 210 211 216 217 216 217 220 216
288 299 300 295 295 292 289 285 284 284 285 286 299 298 290 288 299 315 321 329 344 351 354 356 356 1 8 7 19 14 22 28 204 214 218 212 214 214 211 209 214 213 214 214
317 335 329 321 307 304 298 289 290 289 285 287 287 293 292 279 290 307 316 319 338 344 347 354 359 3 7 7 9 18 15 25 38 190 211 221 217 212 210 208 202 203 208 210
327 333 325 327 327 322 307 301 295 291 292 293 294 291 287 280 287 298 310 316 325 338 342 350 355 2 8 15 4 10 15 16 25 41 164 207 218 214 209 206 206 204 203 201
324 343 342 336 340 334 329 315 297 296 300 297 294 291 287 280 279 289 302 315 319 330 339 345 347 352 360 10 14 4 3 12 17 29 50 119 187 204 207 208 203 200 199 197
342 345 344 340 340 336 330 326 309 297 299 298 293 288 282 271 273 279 291 303 315 320 331 338 342 341 348 0 9 13 1 357 10 20 33 51 85 156 186 201 198 196 197 194
344 339 341 332 327 329 327 325 315 303 295 294 291 283 270 263 270 270 276 289 307 313 323 328 333 333 338 348 355 5 16 359 353 7 25 41 51 82 121 150 174 182 189 192
340 342 338 337 329 325 323 320 315 307 298 289 283 277 270 256 252 258 268 280 294 307 316 322 326 327 328 333 342 353 0 11 0 347 357 22 51 58 71 111 132 144 165 181
340 338 332 334 330 325 322 320 314 311 305 293 278 257 245 241 241 250 256 272 286 302 310 314 317 317 316 321 327 337 346 349 0 16 328 348 13 45 65 73 94 138 158 181
329 328 325 328 328 325 321 319 315 312 312 301 274 247 236 239 244 251 261 263 276 290 301 305 308 310 308 311 314 316 323 331 340 354 7 312 329 10 46 66 72 86 134 160
316 316 319 321 323 322 320 318 315 310 306 301 278 256 248 249 251 255 259 266 272 282 291 293 298 303 305 308 309 307 311 315 323 327 344 342 303 302 350 46 71 89 113 140
308 309 313 317 318 317 317 313 315 310 303 296 287 277 269 264 262 260 264 267 275 276 276 281 287 291 291 297 302 298 292 296 299 298 288 305 341 319 285 326 350 179 186 131
301 305 306 308 311 312 311 306 303 303 301 298 292 283 275 267 269 264 260 263 263 265 268 274 279 285 287 288 290 293 283 278 280 282 286 289 296 327 286 267 277 291 268 212
300 306 307 308 308 307 302 300 298 298 298 297 295 291 285 275 268 264 263 261 260 263 266 269 277 281 283 286 286 280 278 276 273 271 277 277 275 269 278 265 239 238 256 263
300 302 303 304 303 302 299 295 294 295 292 285 280 285 286 286 283 275 268 265 264 263 264 266 269 274 279 282 283 284 276 270 268 266 263 269 273 269 268 272 263 242 240 248
294 298 298 296 295 290 291 292 293 293 293 293 286 287 278 276 282 284 279 276 273 269 266 267 266 265 270 275 277 276 278 272 263 260 257 253 257 263 263 257 254 256 245 238
Wind_Speed_850mb
17 29 29 36 39 35 29 38 20 44 43 38 29 36 56 75 62 87 80 93 95 92 84 76 64 60 56 42 52 78 90 88 96 98 99 97 97 101 98 93 89 93 90 88
31 34 34 46 38 37 39 42 34 41 47 18 48 53 51 71 74 78 74 82 96 95 91 77 58 51 60 35 46 71 79 84 88 93 94 97 95 100 98 93 88 94 96 90
32 6 10 19 20 30 16 10 13 16 24 23 31 36 41 55 67 78 83 82 92 90 86 79 56 48 51 31 40 63 69 77 89 94 92 93 92 94 97 94 90 92 96 94
24 4 25 15 7 11 15 31 20 23 24 35 43 53 49 49 55 73 83 88 90 97 98 78 52 41 35 21 30 54 65 75 85 88 88 86 86 90 92 91 92 91 97 95
9 16 34 36 25 28 24 34 24 18 28 41 52 42 39 50 65 67 76 94 83 86 91 86 58 36 25 20 25 47 60 70 76 80 80 82 81 84 88 89 90 91 94 96
6 22 30 31 32 27 8 27 39 29 20 30 46 24 25 67 79 74 65 83 81 88 93 96 70 35 20 18 12 36 49 61 63 71 71 73 69 81 83 84 86 87 91 95
20 28 29 24 24 32 16 21 19 36 67 62 26 39 71 75 74 68 65 60 82 72 83 95 86 52 24 11 9 11 44 47 53 60 61 62 68 74 74 80 82 83 89 93
3 7 40 43 26 16 25 84 86 80 75 71 73 73 63 67 63 62 65 61 63 80 82 83 90 79 46 19 7 11 32 40 50 53 56 58 62 62 65 74 80 81 86 90
14 26 61 79 75 85 101 70 79 76 81 82 71 76 61 60 59 59 61 62 56 55 73 79 82 89 77 39 8 13 19 43 40 44 55 58 60 66 64 72 79 83 87 93
32 45 61 77 82 84 78 92 94 92 82 83 75 77 60 55 53 56 56 55 52 52 69 81 78 81 84 63 16 6 16 14 48 50 58 63 63 65 67 75 82 85 89 93
37 56 66 66 70 76 77 68 81 71 65 69 79 81 59 52 49 49 49 49 47 47 47 61 73 76 81 81 49 10 6 22 28 30 34 51 58 61 68 69 75 82 86 92
26 67 60 81 92 85 75 79 86 75 79 90 85 75 63 52 43 44 44 43 45 44 45 46 46 62 70 76 73 45 13 10 26 32 32 44 48 51 55 61 59 61 64 78
26 57 77 90 84 83 81 93 86 73 80 83 79 69 65 57 43 38 40 36 40 45 48 46 44 42 58 67 69 65 42 16 12 25 39 48 47 49 55 54 55 53 60 64
25 47 57 40 60 82 75 83 80 79 82 85 84 76 70 57 44 37 37 32 36 41 46 46 44 42 39 55 60 62 58 38 16 11 22 37 48 50 50 55 57 59 59 60
43 44 45 64 73 73 63 57 64 78 79 77 70 64 63 59 51 39 36 30 31 35 43 44 44 43 39 35 49 54 57 57 39 19 9 22 36 45 50 52 54 55 54 56
46 53 55 67 81 81 74 62 57 65 67 71 66 57 55 56 54 43 37 28 31 35 40 44 42 42 40 35 31 39 50 52 50 35 21 12 20 30 37 45 51 54 55 58
46 63 78 82 80 89 84 71 55 54 60 65 61 46 48 50 51 43 36 26 28 35 36 40 39 37 37 36 33 29 34 47 48 43 32 23 16 17 25 36 42 47 48 53
34 42 48 58 67 77 82 70 56 46 47 50 48 45 44 43 45 41 34 26 26 35 38 39 36 33 32 32 29 27 25 25 40 44 38 27 23 15 22 23 30 37 40 40
33 42 50 56 60 59 63 65 56 44 35 35 38 31 38 37 34 36 33 28 29 35 39 39 36 32 30 27 25 24 25 21 13 29 35 33 25 20 16 16 20 26 26 34
32 42 51 55 54 55 57 51 50 38 26 22 23 20 25 34 33 34 28 28 30 37 40 42 37 32 29 28 24 23 20 19 17 8 16 25 28 24 26 17 10 15 22 28
32 41 49 54 55 51 50 47 46 37 22 13 14 20 25 30 29 29 30 28 31 37 39 38 36 31 28 25 23 19 19 16 14 15 11 7 13 20 18 18 18 13 6 10
35 43 47 50 52 53 48 42 39 37 31 20 16 18 23 27 27 27 31 32 34 35 37 35 30 29 26 23 21 19 17 18 16 12 10 10 6 11 14 9 9 9 10 8
37 42 46 46 49 51 47 43 37 36 33 28 23 22 22 24 27 27 32 35 32 30 30 31 28 29 27 22 21 20 18 17 16 13 10 4 4 2 9 8 4 2 3 2
39 43 49 47 45 47 47 38 36 34 31 29 27 24 22 20 24 23 27 29 29 28 25 29 29 29 30 24 20 23 22 19 21 20 18 12 6 5 2 4 4 8 6 10
41 42 45 45 45 43 44 41 35 32 30 27 27 26 24 22 22 22 23 24 26 27 24 27 29 31 31 26 25 23 25 22 25 25 23 22 17 14 9 7 7 8 11 14
44 45 47 45 45 44 42 41 38 31 31 28 21 25 26 27 25 22 23 26 29 28 26 28 28 34 34 31 30 30 28 25 28 29 25 26 27 25 21 20 15 13 14 16
48 47 48 48 40 41 41 41 40 34 30 33 32 23 24 26 28 29 25 25 27 26 25 28 30 31 32 32 31 31 34 34 32 33 30 29 30 29 28 26 27 22 20 21
Wind_Direction_850mb
235 275 275 270 275 276 257 251 257 275 282 285 316 318 322 327 327 332 333 340 332 324 321 324 322 322 318 277 225 218 215 209 209 212 219 221 220 219 218 216 214 213 212 212
282 268 264 272 273 271 264 262 260 257 265 290 304 304 327 332 328 327 331 333 335 331 331 327 323 323 325 287 218 217 210 209 208 208 211 219 219 217 216 215 212 211 212 212
286 261 306 278 244 243 244 230 211 256 280 297 292 295 318 325 329 327 332 325 337 331 330 333 326 324 326 305 216 211 206 206 208 210 208 215 217 215 213 213 211 211 211 211
285 333 277 244 242 252 240 268 260 263 277 275 275 286 294 325 326 331 338 329 331 345 345 342 332 324 317 308 221 206 207 208 210 211 211 209 215 213 212 211 211 210 209 210
247 253 285 290 274 268 268 282 265 258 264 284 305 300 292 331 329 325 337 341 336 351 349 351 347 333 313 321 216 205 208 210 212 213 212 209 210 210 210 210 209 211 209 207
253 282 282 286 306 278 285 283 275 243 272 297 325 314 306 324 327 330 334 338 346 349 2 1 359 352 342 323 294 214 211 212 213 213 215 216 215 207 208 209 211 211 209 208
259 271 281 281 291 288 250 275 336 301 316 311 305 290 296 312 319 324 331 335 345 355 5 3 4 5 4 352 314 209 205 214 213 213 214 215 211 206 208 207 210 210 209 207
1 255 278 279 318 282 308 315 310 304 302 300 301 299 300 309 316 325 333 336 345 353 3 3 7 12 9 6 309 225 201 212 214 211 210 210 210 209 207 207 207 208 207 207
250 267 278 284 285 286 290 290 294 297 299 300 300 299 303 309 315 328 336 341 343 347 358 2 11 12 12 4 355 220 207 216 214 210 209 207 207 204 204 207 208 206 206 206
283 276 279 286 285 282 278 286 287 289 288 295 299 311 300 306 317 330 335 342 340 346 0 359 5 14 10 13 11 229 190 218 213 206 210 211 210 210 207 207 208 209 206 206
281 285 295 293 288 283 281 285 290 290 290 299 305 306 296 304 319 325 332 340 348 350 358 356 1 2 14 12 20 30 205 209 209 203 208 210 211 212 212 214 214 211 210 208
291 298 297 291 290 287 288 288 288 286 294 294 298 296 299 297 311 321 326 338 346 351 352 357 355 1 7 16 16 22 26 213 209 207 214 213 210 211 216 217 216 217 220 216
288 299 300 295 295 292 289 285 284 284 285 286 299 298 290 288 299 315 321 329 344 351 354 356 356 1 8 7 19 14 22 28 204 214 218 212 214 214 211 209 214 213 214 214
317 335 329 321 307 304 298 289 290 289 285 287 287 293 292 279 290 307 316 319 338 344 347 354 359 3 7 7 9 18 15 25 38 190 211 221 217 212 210 208 202 203 208 210
327 333 325 327 327 322 307 301 295 291 292 293 294 291 287 280 287 298 310 316 325 338 342 350 355 2 8 15 4 10 15 16 25 41 164 207 218 214 209 206 206 204 203 201
324 343 342 336 340 334 329 315 297 296 300 297 294 291 287 280 279 289 302 315 319 330 339 345 347 352 360 10 14 4 3 12 17 29 50 119 187 204 207 208 203 200 199 197
342 345 344 340 340 336 330 326 309 297 299 298 293 288 282 271 273 279 291 303 315 320 331 338 342 341 348 0 9 13 1 357 10 20 33 51 85 156 186 201 198 196 197 194
344 339 341 332 327 329 327 325 315 303 295 294 291 283 270 263 270 270 276 289 307 313 323 328 333 333 338 348 355 5 16 359 353 7 25 41 51 82 121 150 174 182 189 192
340 342 338 337 329 325 323 320 315 307 298 289 283 277 270 256 252 258 268 280 294 307 316 322 326 327 328 333 342 353 0 11 0 347 357 22 51 58 71 111 132 144 165 181
340 338 332 334 330 325 322 320 314 311 305 293 278 257 245 241 241 250 256 272 286 302 310 314 317 317 316 321 327 337 346 349 0 16 328 348 13 45 65 73 94 138 158 181
329 328 325 328 328 325 321 319 315 312 312 301 274 247 236 239 244 251 261 263 276 290 301 305 308 310 308 311 314 316 323 331 340 354 7 312 329 10 46 66 72 86 134 160
316 316 319 321 323 322 320 318 315 310 306 301 278 256 248 249 251 255 259 266 272 282 291 293 298 303 305 308 309 307 311 315 323 327 344 342 303 302 350 46 71 89 113 140
308 309 313 317 318 317 317 313 315 310 303 296 287 277 269 264 262 260 264 267 275 276 276 281 287 291 291 297 302 298 292 296 299 298 288 305 341 319 285 326 350 179 186 131
301 305 306 308 311 312 311 306 303 303 301 298 292 283 275 267 269 264 260 263 263 265 268 274 279 285 287 288 290 293 283 278 280 282 286 289 296 327 286 267 277 291 268 212
300 306 307 308 308 307 302 300 298 298 298 297 295 291 285 275 268 264 263 261 260 263 266 269 277 281 283 286 286 280 278 276 273 271 277 277 275 269 278 265 239 238 256 263
300 302 303 304 303 302 299 295 294 295 292 285 280 285 286 286 283 275 268 265 264 263 264 266 269 274 279 282 283 284 276 270 268 266 263 269 273 269 268 272 263 242 240 248
294 298 298 296 295 290 291 292 293 293 293 293 286 287 278 276 282 284 279 276 273 269 266 267 266 265 270 275 277 276 278 272 263 260 257 253 257 263 263 257 254 256 245 238